This is the latest recevied weather packets stored in our database for station/object K4SPB-4. If no packets are shown the sender has not sent any weather packets the latest 10 day(s).
| Time | Temp. | Humidity | Pressure | Rain* | Wind** | Luminosity | Snow |
|---|---|---|---|---|---|---|---|
| 1778391029 | 17.22° C | 72% | 1012.1 hPa | 0 mm | - | - | - |
| 1778381432 | 20° C | 63% | 1012 hPa | 0 mm | - | - | - |
| 1778380829 | 20° C | 62% | 1011.9 hPa | 0 mm | - | - | - |
| 1778380227 | 20° C | 61% | 1011.7 hPa | 0 mm | - | - | - |
| 1778376694 | 22.22° C | 50% | 1010.9 hPa | 0 mm | - | - | - |
| 1778376032 | 22.78° C | 48% | 1010.6 hPa | 0 mm | - | - | - |
| 1778374829 | 23.89° C | 45% | 1010.4 hPa | 0 mm | - | - | - |
| 1778371235 | 26.11° C | 37% | 1009.7 hPa | 0 mm | - | - | - |
| 1778370632 | 26.11° C | 37% | 1009.6 hPa | 0 mm | - | - | - |
| 1778369428 | 26.11° C | 36% | 1009.4 hPa | 0 mm | - | - | - |
| 1778364629 | 26.67° C | 32% | 1009.2 hPa | 0 mm | - | - | - |
| 1778359832 | 26.67° C | 34% | 1009.5 hPa | 0 mm | - | - | - |
| 1778358629 | 26.67° C | 34% | 1009.6 hPa | 0 mm | - | - | - |
| 1778357444 | 26.67° C | 33% | 1009.8 hPa | 0 mm | - | - | - |
| 1778355637 | 26.11° C | 37% | 1010 hPa | 0 mm | - | - | - |
| 1778353226 | 26.11° C | 37% | 1010.2 hPa | 0 mm | - | - | - |
| 1778352626 | 26.11° C | 35% | 1010.1 hPa | 0 mm | - | - | - |
| 1778350818 | 25.56° C | 41% | 1010.4 hPa | 0 mm | - | - | - |
| 1778347829 | 24.44° C | 46% | 1010.6 hPa | 0 mm | - | - | - |
| 1778346624 | 24.44° C | 49% | 1010.6 hPa | 0 mm | - | - | - |
| 1778345438 | 23.89° C | 49% | 1010.7 hPa | 0 mm | - | - | - |
| 1778344234 | 23.33° C | 50% | 1010.6 hPa | 0 mm | - | - | - |
| 1778343029 | 23.33° C | 57% | 1010.6 hPa | 0 mm | - | - | - |
| 1778342427 | 22.78° C | 57% | 1010.3 hPa | 0 mm | - | - | - |
| 1778340020 | 22.22° C | 63% | 1010.1 hPa | 0 mm | - | - | - |
* Rain latest hour (hover to see other rain measurements)
** Current wind speed in m/s (hover to see current wind gust speed)